Powrót do katalogu

MAANSHAN ZHISHUAN 1

AktywnyNaukaSSO
NORAD 63988·PAYLOAD·🇨🇳 China
Ta nazwa satelity nie została jeszcze potwierdzona przez oficjalne źródła.

Wystrzelony May 14, 2025 z Jiuquan Satellite Launch Center

Loading…

Następne Przeloty (najbliższe 24 godziny)

TLE

ŚwieżeSource: Space-Track

Epoka: Sep 14, 2026, 15:11 UTC

1 63988U 25100G   26257.63309377  .00003895  00000-0  14773-3 0  9992
2 63988  97.3630 331.4886 0012154 356.7072   3.4085 15.27392862 74411

Śledź MAANSHAN ZHISHUAN 1 w czasie rzeczywistym z AllMySat

Download on the App Store